Tetonia, ID

6:16 AM MDT on August 28, 2016 (GMT -0600)
Driggs

Weather History for KDIJ - October, 2011

Change the Weather History Date:

Monday, October 10, 2011

  Actual Average (KRXE) Record (KRXE)
Temperature  
Mean Temperature 44 °F 47 °F  
Max Temperature 52 °F 61 °F 79 °F (2015)
Min Temperature 36 °F 33 °F 20 °F (2009)
Degree Days  
Heating Degree Days 21 18  
Month to date heating degree days 165  
Since 1 July heating degree days 523  
Cooling Degree Days 0 0  
Month to date cooling degree days 0  
Year to date cooling degree days 208  
Moisture  
Dew Point 36 °F    
Average Humidity 79    
Maximum Humidity 93    
Minimum Humidity 47    
Precipitation  
Precipitation 0.07 in 0.03 in 0.32 in (2000)
Month to date precipitation 0.34  
Year to date precipitation 10.22  
Sea Level Pressure  
Sea Level Pressure 29.88 in    
Wind  
Wind Speed 8 mph (South)    
Max Wind Speed 15 mph    
Max Gust Speed -    
Visibility 9 miles    
Events Rain    
T = Trace of Precipitation, MM = Missing Value Source: NWS Daily Summary

Daily Weather History Graph

Daily Weather History Graph

Search for Another Location

Airport or City:

Trip Planner

Search our weather history database for the weather conditions in past years. The results will help you decide how hot, cold, wet, or windy it might be!

Date:

Astronomy

Oct. 10, 2011 Rise Set
Actual Time 7:32 AM MDT 6:49 PM MDT
Civil Twilight 7:03 AM MDT 7:18 PM MDT
Nautical Twilight 6:30 AM MDT 7:51 PM MDT
Astronomical Twilight 5:56 AM MDT 8:24 PM MDT
Moon 5:54 PM MDT (10/10) 6:16 AM MDT (10/10)
Length of Visible Light 12h 14m
Length of Day
11h 17m
Waxing Gibbous, 98% of the Moon is Illuminated
Oct 10
Waxing Gibbous
Oct 11
Full
Oct 19
Last Quarter
Oct 26
New
Nov 2
First Quarter

Hourly Weather History & Observations

Time (MDT) Temp. Windchill Dew Point Humidity Pressure Visibility Wind Dir Wind Speed Gust Speed Precip Events Conditions
12:56 AM 36.0 °F 33.3 °F 32.9 °F 89% 29.96 in 10.0 mi SSE 3.5 mph - N/A   Overcast
1:56 AM 36.9 °F 31.4 °F 34.0 °F 89% 29.94 in 10.0 mi ESE 6.9 mph - N/A   Overcast
2:56 AM 36.9 °F 32.2 °F 34.0 °F 89% 29.93 in 10.0 mi SSE 5.8 mph - N/A   Overcast
3:56 AM 36.0 °F 32.1 °F 32.9 °F 89% 29.91 in 10.0 mi SE 4.6 mph - N/A   Overcast
5:56 AM 36.9 °F 33.1 °F 32.9 °F 86% 29.93 in 10.0 mi SE 4.6 mph - N/A   Overcast
9:56 AM 43.9 °F 39.9 °F 34.0 °F 68% 29.94 in 10.0 mi South 6.9 mph - N/A   Clear
10:56 AM 47.8 °F - 32.9 °F 56% 29.91 in 10.0 mi South 12.7 mph - N/A   Partly Cloudy
12:56 PM 50.9 °F - 34.0 °F 52% 29.87 in 10.0 mi South 12.7 mph - N/A   Overcast
1:56 PM 50.9 °F - 32.0 °F 48% 29.85 in 10.0 mi SW 11.5 mph - N/A   Overcast
3:56 PM 52.9 °F - 32.9 °F 47% 29.79 in 10.0 mi South 15.0 mph - N/A   Scattered Clouds
4:56 PM 52.0 °F - 32.9 °F 48% 29.80 in 10.0 mi South 15.0 mph - N/A   Mostly Cloudy
5:56 PM 50.9 °F - 34.0 °F 52% 29.78 in 10.0 mi SSW 12.7 mph - N/A   Overcast
6:56 PM 45.9 °F 40.0 °F 36.9 °F 71% 29.82 in 10.0 mi SSW 12.7 mph - N/A   Overcast
7:56 PM 41.9 °F 38.2 °F 38.8 °F 89% 29.86 in 6.0 mi South 5.8 mph - 0.00 in Rain Light Rain
8:23 PM 42.8 °F 38.6 °F 39.2 °F 87% 29.93 in 10.0 mi South 6.9 mph - 0.01 in Rain Light Rain
8:31 PM 42.8 °F 38.0 °F 39.2 °F 87% 29.93 in 9.0 mi South 8.1 mph - 0.01 in Rain Light Rain
8:39 PM 42.8 °F 38.0 °F 39.2 °F 87% 29.93 in 8.0 mi South 8.1 mph - 0.01 in Rain Light Rain
8:56 PM 41.9 °F 35.9 °F 38.8 °F 89% 29.85 in 5.0 mi South 10.4 mph - 0.02 in Rain Light Rain
9:56 PM 39.9 °F 32.9 °F 37.9 °F 93% 29.84 in 8.0 mi South 11.5 mph - 0.03 in Rain Light Rain
10:33 PM 39.2 °F 33.0 °F 37.4 °F 93% 29.93 in 10.0 mi South 9.2 mph - 0.02 in   Overcast
10:56 PM 39.9 °F 34.5 °F 36.9 °F 89% 29.82 in 10.0 mi South 8.1 mph - 0.02 in   Overcast
11:03 PM 39.2 °F 32.5 °F 37.4 °F 93% 29.93 in 10.0 mi SSE 10.4 mph - N/A   Overcast
11:10 PM 39.2 °F 32.0 °F 37.4 °F 93% 29.93 in 10.0 mi SSE 11.5 mph - N/A   Overcast
11:27 PM 39.2 °F 32.5 °F 37.4 °F 93% 29.92 in 10.0 mi South 10.4 mph - N/A   Overcast
11:56 PM 39.9 °F 33.4 °F 36.9 °F 89% 29.79 in 10.0 mi South 10.4 mph - N/A   Overcast